| time (UTC) | temp F | wind direction | speed MPH | gust MPH | rain 1hr in | rain 24hr in | rain mn in | humidity % | barometer mb |
| 20260509201015 | 64 | 8 | 1.0 | 0.0 | 0.00 | 0.00 | 0.00 | 65 | |
| 20260509200015 | 64 | 42 | 0.0 | 0.0 | 0.00 | 0.00 | 0.00 | 67 | |
| 20260509195015 | 63 | 52 | 0.0 | 0.0 | 0.00 | 0.00 | 0.00 | 67 | |
| 20260509194015 | 63 | 31 | 0.0 | 0.0 | 0.00 | 0.00 | 0.00 | 68 | |
| 20260509193015 | 63 | 20 | 0.0 | 0.0 | 0.00 | 0.00 | 0.00 | 67 | |
| 20260509192015 | 63 | 38 | 0.0 | 0.0 | 0.00 | 0.00 | 0.00 | 69 | |
| 20260509191015 | 63 | 96 | 2.0 | 0.0 | 0.00 | 0.00 | 0.00 | 69 | |
| 20260509190015 | 62 | 75 | 2.0 | 0.0 | 0.00 | 0.00 | 0.00 | 70 | |
| 20260509184945 | 62 | 63 | 0.0 | 0.0 | 0.00 | 0.00 | 0.00 | 70 | |
| 20260509183945 | 61 | 34 | 0.0 | 0.0 | 0.00 | 0.00 | 0.00 | 71 | |
| 20260509182945 | 61 | 77 | 1.0 | 0.0 | 0.00 | 0.00 | 0.00 | 70 | |
| 20260509181945 | 61 | 17 | 1.0 | 0.0 | 0.00 | 0.00 | 0.00 | 71 | |
| 20260509180945 | 61 | 70 | 2.0 | 0.0 | 0.00 | 0.00 | 0.00 | 71 | |
| 20260509175945 | 61 | 68 | 1.0 | 0.0 | 0.00 | 0.00 | 0.00 | 72 | |
| 20260509174914 | 60 | 39 | 0.0 | 0.0 | 0.00 | 0.00 | 0.00 | 71 | |
| 20260509173914 | 60 | 37 | 4.0 | 0.0 | 0.00 | 0.00 | 0.00 | 72 | |
| 20260509172914 | 59 | 62 | 2.0 | 0.0 | 0.00 | 0.00 | 0.00 | 73 | |
| 20260509171914 | 59 | 31 | 2.0 | 0.0 | 0.00 | 0.00 | 0.00 | 76 | |
| 20260509170914 | 60 | 55 | 0.0 | 0.0 | 0.00 | 0.00 | 0.00 | 76 | |
| 20260509165914 | 58 | 56 | 2.0 | 0.0 | 0.00 | 0.00 | 0.00 | 81 | |
| 20260509164914 | 58 | 34 | 0.0 | 0.0 | 0.00 | 0.00 | 0.00 | 80 | |
| 20260509163913 | 58 | 70 | 0.0 | 0.0 | 0.00 | 0.00 | 0.00 | 81 | |
| 20260509162913 | 58 | 55 | 0.0 | 0.0 | 0.00 | 0.00 | 0.00 | 83 | |
| 20260509161843 | 57 | 55 | 0.0 | 0.0 | 0.00 | 0.00 | 0.00 | 84 | |
| 20260509160843 | 56 | 46 | 3.0 | 0.0 | 0.00 | 0.00 | 0.00 | 85 | |
| 20260509155843 | 56 | 226 | 0.0 | 0.0 | 0.00 | 0.00 | 0.00 | 86 | |
| 20260509154843 | 56 | 226 | 0.0 | 0.0 | 0.00 | 0.00 | 0.00 | 87 | |
| 20260509153843 | 55 | 226 | 0.0 | 0.0 | 0.00 | 0.00 | 0.00 | 89 | |
| 20260509152842 | 55 | 226 | 0.0 | 0.0 | 0.00 | 0.00 | 0.00 | 90 | |
| 20260509151842 | 56 | 226 | 0.0 | 0.0 | 0.00 | 0.00 | 0.00 | 90 | |
| 20260509150842 | 55 | 226 | 0.0 | 0.0 | 0.00 | 0.00 | 0.00 | 89 | |
| 20260509145842 | 55 | 226 | 0.0 | 0.0 | 0.00 | 0.00 | 0.00 | 90 | |
| 20260509144842 | 54 | 226 | 0.0 | 0.0 | 0.00 | 0.00 | 0.00 | 90 | |
| 20260509143842 | 54 | 226 | 0.0 | 0.0 | 0.00 | 0.00 | 0.00 | 92 | |
| 20260509142842 | 54 | 226 | 0.0 | 0.0 | 0.00 | 0.00 | 0.00 | 93 | |
| 20260509141842 | 54 | 226 | 0.0 | 0.0 | 0.00 | 0.00 | 0.00 | 93 | |
| 20260509140842 | 54 | 226 | 0.0 | 0.0 | 0.00 | 0.00 | 0.00 | 93 | |
| 20260509135812 | 54 | 226 | 0.0 | 0.0 | 0.00 | 0.00 | 0.00 | 91 | |
| 20260509134812 | 53 | 226 | 0.0 | 0.0 | 0.00 | 0.00 | 0.00 | 92 | |
| 20260509133812 | 53 | 226 | 0.0 | 0.0 | 0.00 | 0.00 | 0.00 | 94 | |
| 20260509132812 | 52 | 226 | 0.0 | 0.0 | 0.00 | 0.00 | 0.00 | 94 | |
| 20260509131742 | 52 | 226 | 0.0 | 0.0 | 0.00 | 0.00 | 0.00 | 93 | |
| 20260509130742 | 52 | 226 | 0.0 | 0.0 | 0.00 | 0.00 | 0.00 | 93 | |
| 20260509125712 | 52 | 226 | 0.0 | 0.0 | 0.00 | 0.00 | 0.00 | 94 | |
| 20260509124712 | 53 | 226 | 0.0 | 0.0 | 0.00 | 0.00 | 0.00 | 94 | |
| 20260509123643 | 52 | 226 | 0.0 | 0.0 | 0.00 | 0.00 | 0.00 | 93 | |
| 20260509122642 | 52 | 226 | 0.0 | 0.0 | 0.00 | 0.00 | 0.00 | 92 | |
| 20260509121642 | 53 | 226 | 0.0 | 0.0 | 0.00 | 0.00 | 0.00 | 91 | |
| 20260509120641 | 53 | 226 | 0.0 | 0.0 | 0.00 | 0.00 | 0.00 | 89 | |
| 20260509115641 | 53 | 226 | 0.0 | 0.0 | 0.00 | 0.00 | 0.00 | 86 | |
| 20260509114641 | 54 | 226 | 0.0 | 0.0 | 0.00 | 0.00 | 0.00 | 84 | |
| 20260509113641 | 53 | 188 | 0.0 | 0.0 | 0.00 | 0.00 | 0.00 | 84 | |
| 20260509112641 | 54 | 188 | 0.0 | 0.0 | 0.00 | 0.00 | 0.00 | 85 | |
| 20260509111611 | 54 | 188 | 0.0 | 0.0 | 0.00 | 0.00 | 0.00 | 85 | |
| 20260509110541 | 53 | 188 | 0.0 | 0.0 | 0.00 | 0.00 | 0.00 | 83 | |
| 20260509105541 | 53 | 188 | 0.0 | 0.0 | 0.00 | 0.00 | 0.00 | 83 | |
| 20260509104541 | 53 | 188 | 0.0 | 0.0 | 0.00 | 0.00 | 0.00 | 83 | |
| 20260509103541 | 52 | 188 | 0.0 | 0.0 | 0.00 | 0.00 | 0.00 | 83 | |
| 20260509102541 | 52 | 188 | 0.0 | 0.0 | 0.00 | 0.00 | 0.00 | 84 | |
| 20260509101541 | 50 | 91 | 0.0 | 0.0 | 0.00 | 0.00 | 0.00 | 86 | |
| 20260509100541 | 50 | 91 | 0.0 | 0.0 | 0.00 | 0.00 | 0.00 | 86 | |
| 20260509095540 | 50 | 91 | 0.0 | 0.0 | 0.00 | 0.00 | 0.00 | 87 | |
| 20260509094540 | 50 | 91 | 0.0 | 0.0 | 0.00 | 0.00 | 0.00 | 87 | |
| 20260509093540 | 50 | 91 | 0.0 | 0.0 | 0.00 | 0.00 | 0.00 | 87 | |
| 20260509092540 | 50 | 91 | 0.0 | 0.0 | 0.00 | 0.00 | 0.00 | 87 | |
| 20260509091540 | 51 | 91 | 0.0 | 0.0 | 0.00 | 0.00 | 0.00 | 86 | |
| 20260509090540 | 51 | 91 | 0.0 | 0.0 | 0.00 | 0.00 | 0.00 | 87 | |
| 20260509085540 | 50 | 91 | 0.0 | 0.0 | 0.00 | 0.00 | 0.00 | 86 | |
| 20260509084540 | 51 | 91 | 0.0 | 0.0 | 0.00 | 0.00 | 0.00 | 86 | |
| 20260509083539 | 51 | 91 | 0.0 | 0.0 | 0.00 | 0.00 | 0.00 | 86 | |
| 20260509082539 | 51 | 91 | 0.0 | 0.0 | 0.00 | 0.00 | 0.00 | 86 | |
| 20260509081539 | 51 | 91 | 0.0 | 0.0 | 0.00 | 0.00 | 0.00 | 86 | |
| 20260509080509 | 51 | 91 | 0.0 | 0.0 | 0.00 | 0.00 | 0.00 | 87 | |
| 20260509075509 | 51 | 91 | 0.0 | 0.0 | 0.00 | 0.00 | 0.00 | 86 | |
| 20260509074509 | 52 | 91 | 0.0 | 0.0 | 0.00 | 0.00 | 0.00 | 85 | |
| 20260509073509 | 51 | 91 | 0.0 | 0.0 | 0.00 | 0.00 | 0.00 | 85 | |
| 20260509072509 | 51 | 91 | 0.0 | 0.0 | 0.00 | 0.00 | 0.00 | 84 | |
| 20260509071509 | 51 | 91 | 0.0 | 0.0 | 0.00 | 0.00 | 0.00 | 83 | |
| 20260509070509 | 51 | 91 | 0.0 | 0.0 | 0.00 | 0.00 | 0.00 | 83 | |
| 20260509065508 | 51 | 91 | 0.0 | 0.0 | 0.00 | 0.00 | 0.00 | 83 | |
| 20260509064508 | 50 | 91 | 0.0 | 0.0 | 0.00 | 0.00 | 0.00 | 82 | |
| 20260509063508 | 50 | 91 | 0.0 | 0.0 | 0.00 | 0.00 | 0.00 | 84 | |
| 20260509062508 | 51 | 91 | 0.0 | 0.0 | 0.00 | 0.00 | 0.00 | 83 | |
| 20260509061508 | 52 | 91 | 0.0 | 0.0 | 0.00 | 0.00 | 0.00 | 80 | |
| 20260509060508 | 53 | 91 | 0.0 | 0.0 | 0.00 | 0.00 | 0.00 | 79 | |
| 20260509055508 | 53 | 91 | 0.0 | 0.0 | 0.00 | 0.00 | 0.00 | 77 | |
| 20260509054507 | 53 | 91 | 0.0 | 0.0 | 0.00 | 0.00 | 0.00 | 76 | |
| 20260509053507 | 53 | 91 | 0.0 | 0.0 | 0.00 | 0.00 | 0.00 | 77 | |
| 20260509052507 | 53 | 91 | 0.0 | 0.0 | 0.00 | 0.00 | 0.00 | 74 | |
| 20260509051507 | 53 | 91 | 0.0 | 0.0 | 0.00 | 0.00 | 0.00 | 75 | |
| 20260509050507 | 53 | 91 | 0.0 | 0.0 | 0.00 | 0.00 | 0.00 | 75 | |
| 20260509045507 | 54 | 91 | 0.0 | 0.0 | 0.00 | 0.00 | 0.00 | 75 | |
| 20260509044507 | 54 | 91 | 0.0 | 0.0 | 0.00 | 0.00 | 0.00 | 76 | |
| 20260509043507 | 54 | 91 | 0.0 | 0.0 | 0.00 | 0.00 | 0.00 | 73 | |
| 20260509042507 | 54 | 91 | 0.0 | 0.0 | 0.00 | 0.00 | 0.00 | 74 | |
| 20260509041507 | 54 | 91 | 0.0 | 0.0 | 0.00 | 0.00 | 0.00 | 73 | |
| 20260509040506 | 54 | 91 | 0.0 | 0.0 | 0.00 | 0.00 | 0.00 | 75 | |
| 20260509035506 | 54 | 91 | 0.0 | 0.0 | 0.00 | 0.00 | 0.00 | 73 | |
| 20260509034507 | 54 | 91 | 0.0 | 0.0 | 0.00 | 0.00 | 0.00 | 73 | |
| 20260509033437 | 54 | 91 | 0.0 | 0.0 | 0.00 | 0.00 | 0.00 | 72 | |
| 20260509032437 | 55 | 91 | 0.0 | 0.0 | 0.00 | 0.00 | 0.00 | 72 | |
| 20260509031407 | 54 | 91 | 0.0 | 0.0 | 0.00 | 0.00 | 0.00 | 73 | |
| 20260509030407 | 55 | 91 | 0.0 | 0.0 | 0.00 | 0.00 | 0.00 | 72 | |
| 20260509025407 | 55 | 91 | 0.0 | 0.0 | 0.00 | 0.00 | 0.00 | 70 | |
| 20260509024407 | 55 | 91 | 0.0 | 0.0 | 0.00 | 0.00 | 0.00 | 69 | |
| 20260509023407 | 56 | 91 | 0.0 | 0.0 | 0.00 | 0.00 | 0.00 | 68 | |
| 20260509022337 | 56 | 91 | 0.0 | 0.0 | 0.00 | 0.00 | 0.00 | 66 | |
| 20260509021337 | 58 | 91 | 0.0 | 0.0 | 0.00 | 0.00 | 0.00 | 65 | |
| 20260509020337 | 56 | 91 | 0.0 | 0.0 | 0.00 | 0.00 | 0.00 | 65 | |
| 20260509015307 | 56 | 91 | 0.0 | 0.0 | 0.00 | 0.00 | 0.00 | 65 | |
| 20260509014307 | 57 | 91 | 0.0 | 0.0 | 0.00 | 0.00 | 0.00 | 64 | |
| 20260509013307 | 56 | 91 | 0.0 | 0.0 | 0.00 | 0.00 | 0.00 | 64 | |
| 20260509012307 | 57 | 91 | 0.0 | 0.0 | 0.00 | 0.00 | 0.00 | 64 | |
| 20260509011307 | 56 | 91 | 0.0 | 0.0 | 0.00 | 0.00 | 0.00 | 65 | |
| 20260509010237 | 57 | 91 | 0.0 | 0.0 | 0.00 | 0.00 | 0.00 | 63 | |
| 20260509005237 | 56 | 91 | 0.0 | 0.0 | 0.00 | 0.00 | 0.00 | 64 | |
| 20260509004237 | 56 | 91 | 0.0 | 0.0 | 0.00 | 0.00 | 0.00 | 63 | |
| 20260509003237 | 58 | 91 | 0.0 | 0.0 | 0.00 | 0.00 | 0.00 | 61 | |
| 20260509002237 | 58 | 91 | 0.0 | 0.0 | 0.00 | 0.00 | 0.00 | 58 | |
| 20260509001237 | 59 | 91 | 0.0 | 0.0 | 0.00 | 0.00 | 0.00 | 58 | |
| 20260509000236 | 62 | 91 | 0.0 | 0.0 | 0.00 | 0.00 | 0.00 | 52 | |
| 20260508235236 | 64 | 91 | 0.0 | 0.0 | 0.00 | 0.00 | 0.00 | 47 | |
| 20260508234236 | 64 | 91 | 0.0 | 0.0 | 0.00 | 0.00 | 0.00 | 46 | |
| 20260508233236 | 64 | 131 | 0.0 | 0.0 | 0.00 | 0.00 | 0.00 | 44 | |
| 20260508232206 | 64 | 205 | 0.0 | 0.0 | 0.00 | 0.00 | 0.00 | 44 | |
| 20260508231206 | 64 | 202 | 4.0 | 0.0 | 0.00 | 0.00 | 0.00 | 45 | |
| 20260508230206 | 65 | 136 | 0.0 | 0.0 | 0.00 | 0.00 | 0.00 | 45 | |
| 20260508225136 | 64 | 180 | 0.0 | 0.0 | 0.00 | 0.00 | 0.00 | 44 | |
| 20260508224106 | 64 | 210 | 1.0 | 0.0 | 0.00 | 0.00 | 0.00 | 43 | |
| 20260508223036 | 66 | 214 | 2.0 | 0.0 | 0.00 | 0.00 | 0.00 | 42 | |
| 20260508222006 | 66 | 193 | 0.0 | 0.0 | 0.00 | 0.00 | 0.00 | 44 | |
| 20260508220936 | 65 | 158 | 0.0 | 0.0 | 0.00 | 0.00 | 0.00 | 45 | |
| 20260508215906 | 65 | 194 | 1.0 | 0.0 | 0.00 | 0.00 | 0.00 | 44 | |
| 20260508214836 | 64 | 124 | 1.0 | 0.0 | 0.00 | 0.00 | 0.00 | 44 | |
| 20260508213836 | 64 | 184 | 1.0 | 0.0 | 0.00 | 0.00 | 0.00 | 45 | |
| 20260508212836 | 63 | 186 | 3.0 | 0.0 | 0.00 | 0.00 | 0.00 | 46 | |
| 20260508211836 | 63 | 208 | 4.0 | 0.0 | 0.00 | 0.00 | 0.00 | 46 | |
| 20260508210836 | 63 | 110 | 1.0 | 0.0 | 0.00 | 0.00 | 0.00 | 46 | |
| 20260508205835 | 64 | 174 | 3.0 | 0.0 | 0.00 | 0.00 | 0.00 | 47 | |
| 20260508204835 | 64 | 194 | 4.0 | 0.0 | 0.00 | 0.00 | 0.00 | 47 | |
| 20260508203835 | 64 | 188 | 5.0 | 0.0 | 0.00 | 0.00 | 0.00 | 47 | |
| 20260508202835 | 62 | 86 | 0.0 | 0.0 | 0.00 | 0.00 | 0.00 | 48 | |
| 20260508201835 | 62 | 191 | 0.0 | 0.0 | 0.00 | 0.00 | 0.00 | 48 |